Location: Boullarre
(49.1305°N, 3.0047°E)
Time: 18:55:57
(UTC+00:00)

CZ-4B DEB - Pass Details

Date: 10 October 2023
Orbit: 838 x 858 km, 99.0° (Epoch: 01 December)

Event Time Altitude Azimuth Distance (km) Brightness Sun altitude
Rises 18:42:43 0° 170° (S) 3,378 7.1 -16.2°
Reaches altitude 10° 18:45:04 10° 172° (S) 2,448 6.4 -16.5°
Maximum altitude 18:50:29 71° 256° (WSW) 891 4.5 -17.4°
Drops below altitude 10° 18:55:57 10° 341° (NNW) 2,469 7.0 -18.3°
Sets 18:58:20 0° 344° (NNW) 3,410 7.7 -18.7°
